FW3092 Weather Reports


Display with metric or nautical units.
time (UTC)temp
F
wind
direction
speed
MPH
gust
MPH
rain 1hr
in
rain 24hr
in
rain mn
in
humidity
%
barometer
mb
20260509063010 43 156 1.0 3.0 0.00 0.03 0.00 81 953.6
20260509061508 43 135 0.0 3.0 0.00 0.03 0.00 80 953.7
20260509060008 42 76 1.0 3.0 0.00 0.03 0.00 79 954.0
20260509054505 42 65 1.0 2.0 0.00 0.03 0.00 77 954.1
20260509053007 42 65 1.0 2.0 0.00 0.03 0.00 77 954.1
20260509051507 42 64 2.0 4.0 0.00 0.03 0.00 77 954.1
20260509050010 43 67 2.0 4.0 0.00 0.03 0.00 77 954.0
20260509044606 43 101 1.0 3.0 0.00 0.03 0.00 76 954.3
20260509043102 42 99 1.0 3.0 0.00 0.03 0.00 76 954.4
20260509041555 42 69 1.0 3.0 0.00 0.03 0.00 76 954.4
20260509040052 42 69 1.0 3.0 0.00 0.03 0.00 75 954.4
20260509034559 43 69 1.0 4.0 0.00 0.03 0.03 72 954.5
20260509033104 44 90 1.0 3.0 0.00 0.03 0.03 72 954.5
20260509031550 44 90 2.0 4.0 0.00 0.03 0.03 71 954.3
20260509030050 45 92 1.0 3.0 0.00 0.03 0.03 70 954.6
20260509024558 45 92 1.0 3.0 0.00 0.03 0.03 67 954.7
20260509023048 46 91 1.0 3.0 0.00 0.03 0.03 67 954.7
20260509021548 46 92 1.0 3.0 0.00 0.03 0.03 64 954.7
20260509020049 46 89 1.0 3.0 0.00 0.03 0.03 64 954.7
20260509014547 47 86 0.0 1.0 0.00 0.03 0.03 65 954.6
20260509013049 47 86 1.0 3.0 0.00 0.03 0.03 64 954.6
20260509011548 47 5 1.0 3.0 0.00 0.03 0.03 63 954.4
20260509010045 48 5 1.0 3.0 0.00 0.03 0.03 63 954.2
20260509004555 48 5 0.0 2.0 0.00 0.03 0.03 61 953.8
20260509003046 49 5 0.0 0.0 0.00 0.03 0.03 61 953.7
20260509001546 50 5 1.0 2.0 0.00 0.03 0.03 60 953.9
20260509000046 51 360 0.0 2.0 0.00 0.03 0.03 57 953.7
20260508234542 52 360 0.0 2.0 0.00 0.03 0.03 55 953.5
20260508233042 52 355 0.0 2.0 0.00 0.03 0.03 54 953.2
20260508231545 53 355 1.0 4.0 0.00 0.03 0.03 54 953.2
20260508230040 53 24 0.0 3.0 0.00 0.03 0.03 55 953.3
20260508224601 53 30 1.0 5.0 0.00 0.03 0.03 54 953.1
20260508223039 54 290 1.0 5.0 0.00 0.03 0.03 53 953.2
20260508221547 53 11 1.0 4.0 0.00 0.03 0.03 54 953.1
20260508220037 53 5 0.0 5.0 0.00 0.03 0.03 52 953.3
20260508214541 54 36 1.0 6.0 0.00 0.03 0.03 53 953.3
20260508213038 55 298 2.0 8.0 0.00 0.03 0.03 53 953.3
20260508211532 54 309 2.0 9.0 0.00 0.03 0.03 52 953.3
20260508210032 54 271 2.0 10.0 0.00 0.03 0.03 52 953.5
20260508204528 53 279 3.0 11.0 0.00 0.03 0.03 52 953.5
20260508203025 52 287 4.0 9.0 0.00 0.03 0.03 57 953.6
20260508201525 53 256 5.0 11.0 0.00 0.03 0.03 54 953.8
20260508200036 52 91 2.0 7.0 0.00 0.03 0.03 61 954.0
20260508194519 50 57 2.0 6.0 0.00 0.03 0.03 66 954.1
20260508193020 49 5 3.0 8.0 0.00 0.03 0.03 65 954.3
20260508191517 50 284 6.0 11.0 0.00 0.03 0.03 63 954.5
20260508190020 50 290 11.0 20.0 0.00 0.03 0.03 61 954.6
20260508184523 49 239 5.0 14.0 0.00 0.03 0.03 68 954.7
20260508183010 47 268 8.0 16.0 0.00 0.03 0.03 73 954.8
20260508181508 46 267 6.0 14.0 0.00 0.03 0.03 75 955.2
20260508180006 46 238 5.0 13.0 0.00 0.03 0.03 76 955.1
20260508174502 45 315 5.0 13.0 0.00 0.03 0.03 80 955.0
20260508173001 44 244 4.0 13.0 0.00 0.03 0.03 81 955.1
20260508171559 44 288 4.0 8.0 0.00 0.03 0.03 86 955.0
20260508170054 42 348 0.0 3.0 0.00 0.03 0.03 89 955.0
20260508164553 40 94 1.0 4.0 0.00 0.03 0.03 90 955.0
20260508163051 39 13 0.0 3.0 0.00 0.03 0.03 91 955.2
20260508161549 38 334 0.0 4.0 0.00 0.03 0.03 91 955.5
20260508160047 37 31 1.0 4.0 0.00 0.03 0.03 91 955.6
20260508154546 37 329 2.0 4.0 0.00 0.03 0.03 90 955.6
20260508153046 37 322 0.0 4.0 0.00 0.03 0.03 90 955.3
20260508151547 37 341 0.0 6.0 0.01 0.03 0.03 90 955.4
20260508150100 37 30 0.0 2.0 0.02 0.03 0.03 89 954.9
20260508144547 37 350 0.0 5.0 0.02 0.03 0.03 89 955.2
20260508143048 37 334 0.0 3.0 0.03 0.03 0.03 88 955.0
20260508141544 38 285 1.0 8.0 0.02 0.02 0.02 88 955.2
20260508140044 38 289 2.0 7.0 0.01 0.01 0.01 87 955.0
20260508134538 39 314 0.0 4.0 0.01 0.01 0.01 86 954.8
20260508133041 40 260 4.0 9.0 0.00 0.00 0.00 85 954.7
20260508131535 40 254 4.0 8.0 0.00 0.00 0.00 85 954.6
20260508130035 41 182 2.0 4.0 0.00 0.00 0.00 85 954.4
20260508124533 41 176 2.0 7.0 0.00 0.00 0.00 85 953.8
20260508123034 41 218 3.0 6.0 0.00 0.00 0.00 86 954.0
20260508121531 40 242 0.0 4.0 0.00 0.00 0.00 87 954.2
20260508120030 39 281 0.0 1.0 0.00 0.00 0.00 88 954.2
20260508114534 38 281 0.0 1.0 0.00 0.00 0.00 88 954.1
20260508113044 38 281 0.0 0.0 0.00 0.00 0.00 88 954.2
20260508111526 37 281 0.0 2.0 0.00 0.00 0.00 88 954.4
20260508110026 37 281 0.0 0.0 0.00 0.00 0.00 88 954.4
20260508104524 36 281 0.0 2.0 0.00 0.00 0.00 88 954.1
20260508103023 36 281 0.0 2.0 0.00 0.00 0.00 88 954.2
20260508101528 36 280 1.0 4.0 0.00 0.00 0.00 88 954.3
20260508100025 36 283 1.0 4.0 0.00 0.00 0.00 87 954.3
20260508094517 36 284 0.0 3.0 0.00 0.00 0.00 87 954.4
20260508093016 36 275 0.0 2.0 0.00 0.00 0.00 87 954.3
20260508091516 36 355 0.0 5.0 0.00 0.00 0.00 87 954.1
20260508090012 36 283 1.0 4.0 0.00 0.00 0.00 86 954.2
20260508084511 36 296 0.0 3.0 0.00 0.00 0.00 86 953.9
20260508083009 37 294 1.0 4.0 0.00 0.00 0.00 85 954.1
20260508081505 38 319 0.0 3.0 0.00 0.00 0.00 85 953.8
20260508080004 39 294 1.0 4.0 0.00 0.00 0.00 84 953.8
20260508074510 39 249 0.0 10.0 0.00 0.00 0.00 84 953.5
20260508073108 39 279 5.0 9.0 0.00 0.00 0.00 84 953.5
20260508071601 39 241 8.0 12.0 0.00 0.00 0.00 83 953.5
20260508070101 39 242 8.0 11.0 0.00 0.00 0.00 82 953.3
20260508064606 39 246 4.0 7.0 0.00 0.00 0.00 81 953.5